Regional Weather Roundup
Issued by NWS Little Rock, AR

Home | Current Version | Previous Version | Graphics & Text | Print | Product List | Glossary On
Versions: 1 2 3 4 5 6 7 8 9 10 11 12 13 14 15 16 17 18 19 20 21 22 23 24 25 26 27
000
ASUS44 KLZK 290205
RWRLZK

WEATHER ROUNDUP FOR ARKANSAS
NATIONAL WEATHER SERVICE LITTLE ROCK AR
900 PM CDT SUN AUG 28 2016

NOTE: "FAIR" INDICATES FEW OR NO CLOUDS BELOW 12,000 FEET WITH NO
SIGNIFICANT WEATHER AND/OR OBSTRUCTIONS TO VISIBILITY.

ARZ001-003-010-029-290300-
NORTHWEST ARKANSAS

CITY           SKY/WX    TMP DP  RH WIND       PRES   REMARKS
FAYETTEVILLE   PTCLDY    74  72  93 CALM      30.11R
FORT SMITH     CLOUDY    80  66  62 N6        30.05R
HARRISON       PTCLDY    76  71  85 CALM      30.14R
BENTONVILLE    PTCLDY    79  68  69 CALM      30.13R
ROGERS         PTCLDY    76  71  85 NE5       30.13R
SILOAM SPGS    CLEAR     75  64  69 NE5       30.12R
HIGHFILL       CLEAR     77  72  84 N5        30.12R
SPRINGDALE     CLEAR     79  73  83 E3        30.13R
$$

ARZ004-005-016-290300-
NORTH CENTRAL ARKANSAS

CITY           SKY/WX    TMP DP  RH WIND       PRES   REMARKS
BATESVILLE     CLOUDY    75  73  94 W3        30.08R
FLIPPIN        CLEAR     79  70  73 CALM      30.08R
MTN HOME       CLEAR     78  71  79 CALM      30.10R
$$

ARZ040-041-290300-
WEST CENTRAL ARKANSAS

CITY           SKY/WX    TMP DP  RH WIND       PRES   REMARKS
MENA           CLOUDY    77  77 100 CALM      30.08R
MOUNT IDA      CLEAR     76  75  97 CALM      30.05
$$

ARZ009-017-025-026-028-290300-
NORTHEAST ARKANSAS

CITY           SKY/WX    TMP DP  RH WIND       PRES   REMARKS
CORNING          N/A     81  77  89 CALM      30.08R HX  88
JONESBORO      CLEAR     79  72  79 N3        30.06R
NEWPORT        CLOUDY    78  76  93 N7        30.06R
WALNUT RIDGE   CLEAR     82  75  78 CALM      30.06R HX  89
BLYTHEVILLE    CLEAR     80  75  84 E3        30.07R HX  85
$$

ARZ022-023-033-042-044-290300-
CENTRAL ARKANSAS

CITY           SKY/WX    TMP DP  RH WIND       PRES   REMARKS
LITTLE ROCK    PTCLDY    83  74  74 NE7       30.04R HX  89
N LITTLE ROCK    N/A     81  75  80 E3        30.02R HX  87
JACKSONVILLE   CLEAR     80  77  90 CALM      30.04R HX  87
SEARCY         CLEAR     78  75  90 N3        30.07R
HOT SPRINGS    CLEAR     80  74  81 CALM      30.05R HX  85
RUSSELLVILLE   CLEAR     81  71  71 E7        30.05R HX  85
$$

ARZ036-290300-
EAST ARKANSAS

CITY           SKY/WX    TMP DP  RH WIND       PRES   REMARKS
WEST MEMPHIS   CLEAR     81  74  79 CALM      30.03R HX  86
$$

ARZ050-053-066-070-073-290300-
SOUTHWEST ARKANSAS

CITY           SKY/WX    TMP DP  RH WIND       PRES   REMARKS
ARKADELPHIA    FAIR      80  79  96 CALM      30.03R HX  88
TEXARKANA      MOCLDY    77  74  90 CALM      30.03R
EL DORADO      CLOUDY    77  75  93 CALM      30.01R
DE QUEEN       MOCLDY    74  74 100 CALM      30.02R
$$

ARZ056-057-069-290300-
SOUTHEAST ARKANSAS

CITY           SKY/WX    TMP DP  RH WIND       PRES   REMARKS
PINE BLUFF     PTCLDY    82  73  74 NE3       30.03R HX  87
STUTTGART      PTCLDY    82  73  74 NE7       30.04R HX  88
MONTICELLO     CLOUDY    83  76  79 CALM      30.02R HX  91

$$






USA.gov is the U.S. government's official web portal to all federal, state and local government web resources and services.